This demonstration page uses our WeatherBlox Daily Observations layout. Learn more.

Left ArrowRight Arrow

39.92423, -83.80882

Hourly Observations for July 5, 2020

Temp ( °F °C ) Dew Point ( °F °C ) Humidity (%) Winds ( mph kmh ) Pressure ( in mb ) Visibility ( mi km ) Precip ( " mm )
12:30 am 00:30 Cloudy with Mist and Fog 73 23 73 23 100 100 N N/A 29.96 1015 4 6 N/A
12:56 am 00:56 Mostly Cloudy 75 23.9 71 21.7 88 88 E 3 6 29.97 1015 8 13 N/A
1:56 am 01:56 Clear 71 21.7 69 20.6 94 94 ENE 6 9 29.97 1015 10 16 N/A
2:56 am 02:56 Clear 70 21.1 67 19.4 90 90 E 7 11 29.97 1015 10 16 N/A
3:56 am 03:56 Mostly Clear 71 21.7 65 18.3 81 81 E 3 6 29.96 1015 10 16 N/A
4:56 am 04:56 Mostly Clear 71 21.7 65 18.3 81 81 NNE 5 7 29.97 1015 10 16 N/A
5:56 am 05:56 Cloudy 70 21.1 66 18.9 87 87 N N/A 29.98 1015 10 16 N/A
6:56 am 06:56 Mostly Cloudy 69 20.6 66 18.9 90 90 N N/A 29.99 1016 10 16 N/A
7:56 am 07:56 Partly Cloudy 72 22.2 65 18.3 79 79 ENE 5 7 30.00 1016 10 16 N/A
8:56 am 08:56 Mostly Sunny 76 24.4 66 18.9 72 72 ENE 5 7 30.01 1016 10 16 N/A
9:56 am 09:56 Mostly Sunny 79 26.1 68 20 69 69 ENE 5 7 30.01 1016 10 16 N/A
10:56 am 10:56 Sunny 83 28.3 68 20 61 61 VRB 5 7 30.01 1016 10 16 N/A
11:56 am 11:56 Sunny 86 30 67 19.4 53 53 N N/A 30.01 1016 10 16 N/A
12:56 pm 12:56 Sunny 88 31.1 69 20.6 54 54 N N/A 30.00 1016 10 16 N/A
1:56 pm 13:56 Sunny 89 31.7 69 20.6 52 52 NNE 5 7 29.99 1016 10 16 N/A
2:56 pm 14:56 Sunny 90 32.2 68 20 48 48 N 6 9 29.97 1015 10 16 N/A
3:56 pm 15:56 Sunny 90 32.2 67 19.4 47 47 VRB 7 11 29.96 1015 10 16 N/A
4:56 pm 16:56 Sunny 89 31.7 65 18.3 45 45 N 6 9 29.94 1014 10 16 N/A
5:56 pm 17:56 Sunny 90 32.2 64 17.8 42 42 NW 6 9 29.93 1014 10 16 N/A
6:56 pm 18:56 Sunny 89 31.7 64 17.8 43 43 NNW 6 9 29.92 1013 10 16 N/A
7:56 pm 19:56 Sunny 87 30.6 69 20.6 55 55 E 6 9 29.93 1014 10 16 N/A
8:56 pm 20:56 Sunny 82 27.8 67 19.4 60 60 ENE 6 9 29.95 1014 10 16 N/A
9:56 pm 21:56 Clear 78 25.6 68 20 71 71 NE 6 9 29.97 1015 10 16 N/A
10:56 pm 22:56 Clear 77 25 67 19.4 71 71 E 3 6 29.98 1015 10 16 N/A
11:56 pm 23:56 Clear 75 23.9 65 18.3 71 71 ENE 5 7 29.98 1015 10 16 N/A

Powered by AerisWeather